User: anonymous   Login
Location: Brunsbüttel
(52.3892°N, 10.6138°E)
Time: 11:29:36
(UTC+00:00)
Language:

Meteor 2-4 Rocket - Orbit

View from above orbital plane
View from above orbital plane
View from above satellite
View from above satellite

Ground track
Ground track

The orbit data is extracted from the following two-line orbital elements,

1 11289U 79021B   25193.92506506  .00000020  00000-0  35777-5 0  9999
2 11289  81.2463 167.7667 0075565 146.8347 213.7596 14.12035136386475
Epoch (UTC): 12 July 2025 22:12:05
Eccentricity: 0.0075565
inclination: 81.2463°
perigee height: 798 km
apogee height: 907 km
right ascension of ascending node: 167.7667°
argument of perigee: 146.8347°
revolutions per day: 14.12035136
mean anomaly at epoch: 213.7596°
orbit number at epoch: 38647

The dashed part of the orbit path shows where the satellite is in the earth's shadow,  

DLR